Location: Champignolles
(47.0543°N, 4.5663°E)
Time: 16:30:58
(UTC+00:00)

SL-16 R/B - Pass Details

Date: 30 November 2020
Orbit: 841 x 849 km, 71.0° (Epoch: 27 January)

Event Time Altitude Azimuth Distance (km) Brightness Sun altitude
Rises 17:03:53 0° 205° (SSW) 3,384 6.1 -11.4°
Reaches altitude 10° 17:06:19 10° 206° (SSW) 2,453 5.3 -11.8°
Maximum altitude 17:11:58 88° 296° (WNW) 848 2.2 -12.7°
Drops below altitude 10° 17:17:39 10° 27° (NNE) 2,468 4.2 -13.6°
Enters shadow 17:18:07 - 27° (NNE) 2,647 4.4 -13.7°
